Orbital Elements at Epoch 2459000.5 (2020-May-31.0) TDB
Reference: JPL 21 (heliocentric ecliptic J2000)
Element | Value | Uncertainty (1-sigma) | Units |
e | .5171000894489155 | 1.1537e-07 | |
a | .7462740680074628 | 1.4204e-09 | au |
q | .3603756806873977 | 8.6382e-08 | au |
i | 5.836784569920079 | 7.0156e-06 | deg |
node | 29.96831669331413 | 1.9827e-05 | deg |
peri | 6.431730312858261 | 2.6854e-05 | deg |
M | 237.7641385283098 | 2.9575e-05 | deg |
tp | 2459080.454348687128 (2020-Aug-18.95434869) | 1.9273e-05 | TDB |
period | 235.4756221359167 0.64 | 6.7226e-07 1.841e-09 | d yr |
n | 1.528820676784146 | 4.3647e-09 | deg/d |
Q | 1.132172455327528 | 2.1548e-09 | au |
|
| | Orbit Determination Parameters
Additional Information
|